Simultaneous Nadir Overpasses (SNOs) Predictions

Prediction of SNOs over PacNW region [( 10.00, 139.50) to ( 22.70, 165.60)] between AQUA and NPP Satellites:

Table of predicted SNOs over PacNW region for the next 30.0 days since TLE Epoch: 11/22/2014
Index Date (AQUA) Time (AQUA) AQUA Lat,Lon Date (NPP) Time (NPP) NPP Lat,Lon Distance(km) Time Diff (sec)
1 11/27/2014 03:28:34 10.10, 150.31 11/27/2014 03:31:59 9.75, 148.79 171.06 205
2 11/29/2014 15:32:10 10.03, 152.34 11/29/2014 15:29:27 10.02, 152.44 11.61 163
3 12/05/2014 02:38:56 10.11, 162.73 12/05/2014 02:41:09 9.84, 161.44 144.18 133
4 12/07/2014 16:19:13 17.75, 141.76 12/07/2014 16:17:51 17.82, 141.55 23.16 82
5 12/13/2014 03:28:00 10.09, 150.47 12/13/2014 03:31:28 8.86, 148.97 214.41 208
6 12/15/2014 15:30:24 14.05, 153.40 12/15/2014 15:28:01 14.09, 153.35 6.31 143




NCC Satellite Simultaneous Nadir Overpasses (SNOs) Prediction Service
